Weather History for Wheaton NDB, MN

Change the Weather History Date:

Saturday, March 30, 2013

  Actual Average Record
Temperature  
Mean Temperature 34 °F -  
Max Temperature 39 °F 48 °F 80 °F (1967)
Min Temperature 30 °F 27 °F -8 °F (1969)
Degree Days  
Heating Degree Days 30    
Moisture  
Dew Point 32 °F    
Average Humidity 92    
Maximum Humidity 100    
Minimum Humidity 81    
Precipitation  
Precipitation 0.24 in - - ()
Sea Level Pressure  
Sea Level Pressure 29.96 in    
Wind  
Wind Speed 9 mph (WNW)    
Max Wind Speed 18 mph    
Max Gust Speed 18 mph    
Visibility 3 miles    
Events Fog , Rain , Snow , Thunderstorm    
Averages and records for this station are not official NWS values.
T = Trace of Precipitation, MM = Missing Value Source: NWS Daily Summary

Daily Weather History Graph

Daily Weather History Graph

Search for Another Location

Airport:

Trip Planner

Search our weather history database for the weather conditions in past years. The results will help you decide how hot, cold, wet, or windy it might be!

Date:

Astronomy

Mar. 30, 2013 Rise Set
Actual Time 7:09 AM CDT 7:52 PM CDT
Civil Twilight 6:39 AM CDT 8:22 PM CDT
Nautical Twilight 6:03 AM CDT 8:58 PM CDT
Astronomical Twilight 5:26 AM CDT 9:35 PM CDT
Moon No Moon Rise 8:53 AM CDT (3/30)
Length of Visible Light 13h 42m
Length of Day
12h 42m
Waning Gibbous, 86% of the Moon is Illuminated
Mar 30
Waning Gibbous
Apr 2
Last Quarter
Apr 10
New
Apr 18
First Quarter
Apr 25
Full

Hourly Weather History & Observations

Time (CDT) Temp. Windchill Dew Point Humidity Pressure Visibility Wind Dir Wind Speed Gust Speed Precip Events Conditions
12:14 AM 37.4 °F 32.8 °F 35.6 °F 93% 29.94 in 3.0 mi ESE 5.8 mph - 0.14 in Snow , Thunderstorm Light Thunderstorms and Snow
12:35 AM 37.4 °F 27.5 °F 35.6 °F 93% 29.91 in 7.0 mi SE 18.4 mph - 0.24 in Rain , Thunderstorm Light Thunderstorms and Rain
12:54 AM 39.2 °F 29.8 °F 37.4 °F 93% 29.90 in 7.0 mi SE 18.4 mph - 0.24 in Thunderstorm Unknown
1:35 AM 39.2 °F - 37.4 °F 93% 29.93 in 5.0 mi Calm Calm - N/A Rain Light Rain
1:54 AM 37.4 °F 34.9 °F 35.6 °F 93% 29.91 in 7.0 mi SSE 3.5 mph - N/A   Scattered Clouds
2:14 AM 37.4 °F - 35.6 °F 93% 29.91 in 5.0 mi Calm Calm - N/A Thunderstorm Scattered Clouds
2:34 AM 35.6 °F 30.7 °F 33.8 °F 93% 29.92 in 2.5 mi NW 5.8 mph - N/A   Mostly Cloudy
2:54 AM 33.8 °F 29.6 °F 33.8 °F 100% 29.92 in 2.5 mi NW 4.6 mph - N/A   Overcast
3:14 AM 33.8 °F 30.8 °F 33.8 °F 100% 29.92 in 2.0 mi NW 3.5 mph - N/A   Overcast
3:34 AM 33.8 °F - 33.8 °F 100% 29.91 in 2.0 mi Calm Calm - N/A   Overcast
3:54 AM 33.8 °F - 32.0 °F 93% 29.91 in 2.0 mi Calm Calm - N/A   Overcast
4:14 AM 33.8 °F 27.0 °F 33.8 °F 100% 29.91 in 2.0 mi West 8.1 mph - N/A   Mostly Cloudy
4:34 AM 33.8 °F 27.7 °F 33.8 °F 100% 29.92 in 2.0 mi West 6.9 mph - N/A   Mostly Cloudy
4:55 AM 33.8 °F 26.4 °F 32.0 °F 93% 29.92 in 1.5 mi WNW 9.2 mph - N/A   Mostly Cloudy
5:15 AM 33.8 °F 27.0 °F 32.0 °F 93% 29.92 in 1.2 mi WNW 8.1 mph - N/A   Overcast
5:34 AM 32.0 °F 24.2 °F 32.0 °F 100% 29.93 in 1.5 mi WNW 9.2 mph - N/A   Mostly Cloudy
5:55 AM 33.8 °F 25.8 °F 32.0 °F 93% 29.93 in 1.5 mi West 10.4 mph 16.1 mph N/A   Overcast
6:14 AM 32.0 °F 22.1 °F 32.0 °F 100% 29.94 in 0.2 mi WNW 13.8 mph - N/A Fog Fog
6:34 AM 32.0 °F 23.6 °F 32.0 °F 100% 29.94 in 1.2 mi WNW 10.4 mph - N/A   Overcast
6:55 AM 32.0 °F 24.8 °F 30.2 °F 93% 29.95 in 0.8 mi West 8.1 mph 16.1 mph N/A   Overcast
7:15 AM 32.0 °F 23.0 °F 30.2 °F 93% 29.95 in 0.2 mi West 11.5 mph - N/A Fog Fog
7:35 AM 30.2 °F 22.6 °F 30.2 °F 100% 29.95 in 0.2 mi WNW 8.1 mph - N/A Fog Light Freezing Fog
7:54 AM 30.2 °F 24.3 °F 30.2 °F 100% 29.96 in 0.2 mi West 5.8 mph - N/A Fog Light Freezing Fog
8:14 AM 30.2 °F 22.6 °F 30.2 °F 100% 29.96 in 0.8 mi WNW 8.1 mph - N/A   Overcast
8:35 AM 32.0 °F 24.8 °F 32.0 °F 100% 29.97 in 2.0 mi WNW 8.1 mph - N/A   Mostly Cloudy
8:54 AM 33.8 °F 27.7 °F 33.8 °F 100% 29.97 in 2.5 mi WNW 6.9 mph - N/A   Clear
9:14 AM 33.8 °F 25.3 °F 33.8 °F 100% 29.97 in 4.0 mi WNW 11.5 mph - N/A   Clear
9:34 AM 35.6 °F 27.1 °F 33.8 °F 93% 29.97 in 4.0 mi WNW 12.7 mph - N/A   Clear
9:54 AM 35.6 °F 27.5 °F 32.0 °F 87% 29.97 in 5.0 mi WNW 11.5 mph 16.1 mph N/A   Clear
10:15 AM 35.6 °F 27.5 °F 32.0 °F 87% 29.97 in 5.0 mi WNW 11.5 mph - N/A   Clear
10:35 AM 35.6 °F 28.0 °F 32.0 °F 87% 29.97 in 5.0 mi WNW 10.4 mph - N/A   Clear
10:55 AM 35.6 °F 28.0 °F 32.0 °F 87% 29.97 in 5.0 mi WNW 10.4 mph - N/A   Clear
11:14 AM 35.6 °F 28.6 °F 32.0 °F 87% 29.97 in 5.0 mi West 9.2 mph - N/A   Clear
11:34 AM 35.6 °F 28.0 °F 32.0 °F 87% 29.97 in 7.0 mi WNW 10.4 mph - N/A   Clear
11:55 AM 35.6 °F 27.5 °F 32.0 °F 87% 29.98 in 5.0 mi NW 11.5 mph 17.3 mph N/A   Clear
12:14 PM 35.6 °F 27.5 °F 30.2 °F 81% 29.98 in 5.0 mi NW 11.5 mph - N/A   Haze
12:34 PM 35.6 °F 28.0 °F 30.2 °F 81% 29.98 in 5.0 mi WNW 10.4 mph - N/A   Haze
12:54 PM 35.6 °F 28.0 °F 30.2 °F 81% 29.98 in 7.0 mi WNW 10.4 mph - N/A   Clear
1:14 PM 35.6 °F 27.5 °F 30.2 °F 81% 29.98 in 7.0 mi NW 11.5 mph - N/A   Clear
1:34 PM 37.4 °F 29.8 °F 32.0 °F 81% 29.98 in 7.0 mi WNW 11.5 mph - N/A   Clear
1:54 PM 37.4 °F 30.8 °F 32.0 °F 81% 29.99 in 5.0 mi WNW 9.2 mph - N/A   Haze
2:14 PM 37.4 °F 31.4 °F 32.0 °F 81% 29.98 in 4.0 mi WNW 8.1 mph - N/A   Haze
2:34 PM 35.6 °F 28.6 °F 32.0 °F 87% 29.99 in 3.0 mi WNW 9.2 mph - N/A   Clear
2:54 PM 35.6 °F 27.1 °F 30.2 °F 81% 29.99 in 3.0 mi WNW 12.7 mph - N/A   Clear
3:14 PM 35.6 °F 27.5 °F 32.0 °F 87% 29.99 in 3.0 mi WNW 11.5 mph - N/A   Scattered Clouds
3:34 PM 35.6 °F 27.5 °F 32.0 °F 87% 29.99 in 2.5 mi WNW 11.5 mph - N/A   Mostly Cloudy
3:55 PM 35.6 °F 28.0 °F 32.0 °F 87% 29.99 in 3.0 mi WNW 10.4 mph - N/A   Scattered Clouds
4:14 PM 35.6 °F 27.5 °F 32.0 °F 87% 29.98 in 3.0 mi WNW 11.5 mph - N/A   Scattered Clouds
4:35 PM 35.6 °F 28.6 °F 32.0 °F 87% 29.98 in 3.0 mi West 9.2 mph - N/A   Clear
4:55 PM 35.6 °F 28.0 °F 32.0 °F 87% 29.98 in 3.0 mi West 10.4 mph - N/A   Clear
5:15 PM 35.6 °F 28.0 °F 33.8 °F 93% 29.97 in 4.0 mi WNW 10.4 mph - N/A   Clear
5:34 PM 35.6 °F 28.6 °F 32.0 °F 87% 29.97 in 3.0 mi West 9.2 mph - N/A   Clear
5:54 PM 35.6 °F 28.6 °F 32.0 °F 87% 29.97 in 4.0 mi West 9.2 mph - N/A   Clear
6:15 PM 35.6 °F 28.6 °F 32.0 °F 87% 29.97 in 3.0 mi WNW 9.2 mph - N/A   Clear
6:34 PM 35.6 °F 29.2 °F 32.0 °F 87% 29.97 in 4.0 mi WNW 8.1 mph - N/A   Clear
6:54 PM 35.6 °F 30.7 °F 32.0 °F 87% 29.97 in 4.0 mi WNW 5.8 mph - N/A   Scattered Clouds
7:14 PM 35.6 °F 29.9 °F 32.0 °F 87% 29.96 in 4.0 mi WNW 6.9 mph - N/A   Overcast
7:35 PM 33.8 °F 25.8 °F 32.0 °F 93% 29.96 in 3.0 mi WNW 10.4 mph 18.4 mph N/A   Overcast
7:54 PM 33.8 °F 27.0 °F 32.0 °F 93% 29.96 in 3.0 mi WNW 8.1 mph - N/A   Overcast
8:15 PM 33.8 °F 27.7 °F 32.0 °F 93% 29.96 in 2.5 mi WNW 6.9 mph 10.4 mph N/A   Overcast
8:34 PM 33.8 °F 25.3 °F 32.0 °F 93% 29.97 in 2.5 mi WNW 11.5 mph - N/A   Overcast
8:54 PM 33.8 °F 24.8 °F 32.0 °F 93% 29.96 in 2.0 mi WNW 12.7 mph - N/A   Overcast
9:14 PM 33.8 °F 26.4 °F 33.8 °F 100% 29.96 in 2.0 mi WNW 9.2 mph - N/A   Overcast
9:34 PM 33.8 °F 25.8 °F 33.8 °F 100% 29.97 in 2.5 mi West 10.4 mph - N/A   Overcast
9:55 PM 33.8 °F 27.0 °F 33.8 °F 100% 29.97 in 2.5 mi WNW 8.1 mph - N/A   Overcast
10:34 PM 33.8 °F 27.0 °F 32.0 °F 93% 29.97 in 2.5 mi West 8.1 mph - N/A   Mostly Cloudy
10:54 PM 33.8 °F 27.0 °F 32.0 °F 93% 29.96 in 4.0 mi West 8.1 mph - N/A   Mostly Cloudy
11:14 PM 33.8 °F 27.0 °F 32.0 °F 93% 29.95 in 5.0 mi West 8.1 mph - N/A   Overcast
11:35 PM 33.8 °F 29.6 °F 30.2 °F 87% 29.94 in 5.0 mi West 4.6 mph - N/A   Overcast
11:54 PM 32.0 °F 26.4 °F 30.2 °F 93% 29.94 in 5.0 mi West 5.8 mph - N/A   Mostly Cloudy